SCP
0 0 0 0 -0 -0 -0 -0 0 0 1 1 1 1 1 1 1 0 0 0 0 0 -0 -0 0 -0 -0 0 -0 -0 -0 -0 0
0 0 0 0 0 0 -0 -0 -0 0 1 2 1 1 2 1 1 0 0 0 0 0 0 0 0 0 -0 -0 -0 -0 -0 0 -0
0 0 0 0 0 0 0 -0 -0 0 1 2 2 2 2 2 1 1 1 1 1 0 0 0 0 0 -0 -0 -0 -0 -0 -0 -0
0 0 0 0 0 0 0 0 -0 -0 0 1 2 1 2 2 2 1 1 1 0 1 1 1 0 0 0 -0 0 -0 -0 0 0
0 0 0 0 0 0 0 0 0 -0 0 0 1 1 2 2 2 2 1 1 1 0 1 1 1 0 0 0 0 0 -0 -0 -0
0 0 0 0 0 0 0 0 0 -0 0 0 0 1 1 2 2 2 1 1 1 0 1 1 0 0 0 0 0 0 0 0 0
0 0 0 0 0 0 1 1 1 1 0 0 0 1 1 1 2 2 1 2 2 1 1 1 1 1 1 0 0 0 0 0 0
0 0 0 0 0 0 1 2 2 1 0 0 0 1 1 1 2 2 2 2 2 2 1 1 1 1 1 0 0 0 0 0 0
0 0 0 0 0 0 0 0 2 2 1 0 0 1 1 2 2 2 2 2 2 2 2 2 1 1 1 0 0 0 0 0 0
0 0 0 0 0 0 0 0 1 1 1 1 1 1 2 2 3 2 2 2 3 2 2 2 2 2 1 0 0 0 0 -0 -0
0 0 0 0 0 0 0 0 0 1 0 1 1 1 2 3 3 2 3 3 3 3 3 2 2 2 1 1 0 0 0 0 -0
0 0 0 0 0 0 0 1 0 1 1 1 0 1 1 3 3 3 3 3 3 3 3 2 2 2 2 1 0 0 0 0 -0
0 0 0 1 1 1 1 0 1 1 1 1 0 0 1 3 3 3 2 3 4 5 4 3 2 2 2 1 1 1 0 0 0
0 -0 -0 0 1 2 1 1 1 1 1 0 0 1 1 2 2 2 2 3 5 5 4 3 3 2 2 2 1 0 0 -0 0
0 0 0 -0 1 4 6 1 1 1 1 2 2 1 1 2 2 2 2 3 2 3 4 5 4 3 3 1 1 0 0 0 -0
0 0 0 0 1 2 3 9 3 2 5 5 3 2 2 2 2 2 3 3 3 2 3 2 2 1 1 1 1 1 0 0 0
0 0 0 0 0 0 0 0 2 11 4 5 5 3 2 2 2 2 3 2 2 1 1 1 1 1 1 1 1 1 1 0 0
0 0 0 0 0 0 0 0 0 0 0 5 3 3 2 3 2 1 2 2 2 1 1 1 1 1 1 1 1 1 1 1 1
0 0 0 0 0 0 0 0 0 0 0 0 8 5 4 3 2 1 1 1 3 0 1 1 1 1 3 3 1 1 0 1 2
0 0 0 0 0 0 0 0 0 0 0 0 1 7 5 4 2 1 1 2 3 3 1 0 0 0 1 1 0 1 0 0 0
Wind_Speed_500mb
69 65 68 70 75 78 83 86 86 85 85 87 88 91 84 82 78 55 50 47 40 38 33 30 28 31 28 24 20 17 20 13 15
72 75 66 71 74 76 78 82 89 93 90 92 91 94 93 88 83 75 57 52 52 41 39 31 32 30 28 30 27 26 25 17 18
55 77 71 70 72 75 77 79 84 88 88 89 92 89 94 93 90 82 73 63 54 51 41 44 25 33 32 31 33 31 33 24 24
51 52 68 70 69 72 76 75 75 82 88 86 86 83 86 92 90 80 82 75 71 59 54 48 50 37 32 33 34 35 38 35 26
68 58 58 65 64 67 73 75 76 79 83 85 85 84 90 91 90 85 76 90 73 61 60 58 56 47 44 36 37 38 38 36 33
60 68 61 58 62 65 69 73 78 79 82 84 81 82 87 87 89 91 86 84 88 74 65 64 58 55 51 46 42 44 43 40 37
54 50 59 69 67 67 69 72 80 83 82 80 80 77 80 87 91 93 95 87 82 81 75 70 64 60 58 54 48 45 44 43 42
14 10 12 30 44 51 57 70 76 83 84 83 82 87 85 91 93 92 90 88 85 82 80 76 68 66 63 59 53 47 52 52 48
6 12 13 14 34 49 52 58 68 75 88 86 87 89 92 88 88 90 91 93 92 88 84 79 74 73 68 64 55 52 55 53 51
20 24 22 19 20 24 41 54 62 71 85 86 85 84 87 87 86 90 93 93 91 90 87 82 80 77 72 70 68 59 60 59 59
27 29 27 26 28 30 33 44 55 60 67 86 86 93 83 89 87 89 89 92 93 92 90 87 84 81 77 74 73 67 66 65 63
33 37 36 35 31 32 35 40 47 55 67 76 88 88 96 94 94 88 87 95 97 94 91 88 88 85 81 80 78 73 69 67 67
25 33 35 39 36 36 41 45 47 57 70 75 91 96 102 93 90 90 90 97 97 97 94 91 82 83 85 83 81 78 75 71 68
18 25 29 31 33 36 43 45 51 59 70 84 88 80 76 80 86 87 85 81 86 95 96 73 86 71 75 79 80 80 79 77 76
16 18 18 17 18 22 20 38 51 67 66 74 67 73 74 76 79 79 71 77 78 83 88 84 75 80 68 63 76 78 77 77 76
13 15 17 13 13 18 7 9 27 48 49 63 62 70 69 71 72 74 70 74 76 71 72 66 67 58 61 60 57 61 72 76 74
18 14 17 19 17 23 19 14 22 29 32 49 61 69 65 67 72 73 71 62 61 61 60 58 58 58 55 53 55 55 49 55 63
17 20 22 21 22 24 23 18 17 21 40 45 55 59 62 66 63 69 74 62 58 59 57 58 58 55 50 50 50 52 55 52 54
16 19 23 26 27 28 22 21 20 22 35 40 48 55 59 60 59 61 62 62 60 58 58 60 57 53 53 42 52 52 52 55 57
23 22 25 26 28 32 31 25 19 22 31 37 34 47 49 54 56 55 60 61 56 55 62 54 64 64 61 62 49 55 46 48 55
Wind_Direction_500mb
193 200 197 201 200 200 200 200 200 201 203 210 213 210 215 212 212 207 201 206 206 207 210 214 217 241 212 209 218 211 230 207 195
188 192 201 201 203 204 203 202 202 202 203 208 214 213 214 218 217 212 210 208 209 208 213 212 213 219 222 214 216 214 224 206 219
197 196 190 203 203 205 206 206 206 205 205 207 212 209 214 216 220 219 208 208 212 210 211 212 211 219 217 218 217 219 215 211 216
229 218 190 201 203 205 206 207 207 208 207 207 210 210 209 213 218 219 216 211 214 209 214 214 224 214 223 220 219 219 220 204 214
219 224 215 202 205 203 203 206 207 208 208 208 211 209 207 213 214 215 216 214 212 219 216 222 222 226 228 230 221 220 220 219 220
219 226 213 211 203 198 201 205 207 208 209 210 209 209 210 210 208 213 215 216 218 219 224 227 227 228 228 231 231 223 226 222 222
222 221 226 212 207 200 199 205 206 207 209 209 208 209 208 209 210 212 217 216 220 221 222 228 227 227 230 231 233 228 223 227 224
255 211 257 238 222 220 200 200 203 205 209 208 207 207 208 210 212 211 212 215 218 223 223 228 227 227 229 232 230 229 231 224 230
296 294 256 245 235 233 219 211 202 207 205 208 206 206 207 208 209 210 209 216 220 221 221 224 227 228 230 232 228 230 233 241 232
298 283 273 272 265 239 225 217 210 210 208 206 207 209 208 206 208 209 209 215 219 221 221 221 225 230 231 233 236 230 233 238 240
277 284 283 271 259 250 236 224 218 213 211 206 207 208 210 208 208 210 209 213 218 220 222 222 224 229 232 235 239 239 238 239 241
258 271 276 276 270 258 249 238 221 210 208 208 207 208 208 209 208 209 208 212 218 220 222 225 228 232 234 236 239 242 241 241 242
270 271 275 279 279 272 256 239 223 214 208 207 207 209 210 208 206 209 209 216 216 221 224 227 228 232 236 238 241 242 243 244 242
299 293 286 282 287 285 265 237 223 222 210 210 212 209 209 209 208 210 211 211 213 220 224 218 229 226 233 239 242 243 245 244 243
337 332 310 309 305 310 318 238 222 222 217 209 207 205 206 207 207 208 212 209 213 216 220 220 221 228 226 232 243 246 247 247 246
8 358 360 6 3 4 70 141 213 212 213 197 199 198 203 204 204 205 203 210 211 211 215 212 218 223 226 229 236 246 246 246 246
36 18 11 22 21 33 53 98 139 161 192 193 198 199 201 201 201 201 195 207 207 205 208 210 214 218 225 229 231 234 241 251 247
43 41 41 35 34 37 66 77 115 160 181 191 199 198 199 199 199 201 198 198 201 206 209 212 212 215 221 224 229 233 234 235 251
52 46 42 45 45 47 53 96 99 142 185 181 193 197 196 198 192 197 196 194 196 199 207 211 212 211 213 216 225 232 226 230 232
45 34 32 35 37 39 46 66 96 115 128 171 185 195 196 196 190 194 194 193 194 197 205 207 211 211 213 214 216 224 230 221 232
Wind_Speed_850mb
69 65 68 70 75 78 83 86 86 85 85 87 88 91 84 82 78 55 50 47 40 38 33 30 28 31 28 24 20 17 20 13 15
72 75 66 71 74 76 78 82 89 93 90 92 91 94 93 88 83 75 57 52 52 41 39 31 32 30 28 30 27 26 25 17 18
55 77 71 70 72 75 77 79 84 88 88 89 92 89 94 93 90 82 73 63 54 51 41 44 25 33 32 31 33 31 33 24 24
51 52 68 70 69 72 76 75 75 82 88 86 86 83 86 92 90 80 82 75 71 59 54 48 50 37 32 33 34 35 38 35 26
68 58 58 65 64 67 73 75 76 79 83 85 85 84 90 91 90 85 76 90 73 61 60 58 56 47 44 36 37 38 38 36 33
60 68 61 58 62 65 69 73 78 79 82 84 81 82 87 87 89 91 86 84 88 74 65 64 58 55 51 46 42 44 43 40 37
54 50 59 69 67 67 69 72 80 83 82 80 80 77 80 87 91 93 95 87 82 81 75 70 64 60 58 54 48 45 44 43 42
14 10 12 30 44 51 57 70 76 83 84 83 82 87 85 91 93 92 90 88 85 82 80 76 68 66 63 59 53 47 52 52 48
6 12 13 14 34 49 52 58 68 75 88 86 87 89 92 88 88 90 91 93 92 88 84 79 74 73 68 64 55 52 55 53 51
20 24 22 19 20 24 41 54 62 71 85 86 85 84 87 87 86 90 93 93 91 90 87 82 80 77 72 70 68 59 60 59 59
27 29 27 26 28 30 33 44 55 60 67 86 86 93 83 89 87 89 89 92 93 92 90 87 84 81 77 74 73 67 66 65 63
33 37 36 35 31 32 35 40 47 55 67 76 88 88 96 94 94 88 87 95 97 94 91 88 88 85 81 80 78 73 69 67 67
25 33 35 39 36 36 41 45 47 57 70 75 91 96 102 93 90 90 90 97 97 97 94 91 82 83 85 83 81 78 75 71 68
18 25 29 31 33 36 43 45 51 59 70 84 88 80 76 80 86 87 85 81 86 95 96 73 86 71 75 79 80 80 79 77 76
16 18 18 17 18 22 20 38 51 67 66 74 67 73 74 76 79 79 71 77 78 83 88 84 75 80 68 63 76 78 77 77 76
13 15 17 13 13 18 7 9 27 48 49 63 62 70 69 71 72 74 70 74 76 71 72 66 67 58 61 60 57 61 72 76 74
18 14 17 19 17 23 19 14 22 29 32 49 61 69 65 67 72 73 71 62 61 61 60 58 58 58 55 53 55 55 49 55 63
17 20 22 21 22 24 23 18 17 21 40 45 55 59 62 66 63 69 74 62 58 59 57 58 58 55 50 50 50 52 55 52 54
16 19 23 26 27 28 22 21 20 22 35 40 48 55 59 60 59 61 62 62 60 58 58 60 57 53 53 42 52 52 52 55 57
23 22 25 26 28 32 31 25 19 22 31 37 34 47 49 54 56 55 60 61 56 55 62 54 64 64 61 62 49 55 46 48 55
Wind_Direction_850mb
193 200 197 201 200 200 200 200 200 201 203 210 213 210 215 212 212 207 201 206 206 207 210 214 217 241 212 209 218 211 230 207 195
188 192 201 201 203 204 203 202 202 202 203 208 214 213 214 218 217 212 210 208 209 208 213 212 213 219 222 214 216 214 224 206 219
197 196 190 203 203 205 206 206 206 205 205 207 212 209 214 216 220 219 208 208 212 210 211 212 211 219 217 218 217 219 215 211 216
229 218 190 201 203 205 206 207 207 208 207 207 210 210 209 213 218 219 216 211 214 209 214 214 224 214 223 220 219 219 220 204 214
219 224 215 202 205 203 203 206 207 208 208 208 211 209 207 213 214 215 216 214 212 219 216 222 222 226 228 230 221 220 220 219 220
219 226 213 211 203 198 201 205 207 208 209 210 209 209 210 210 208 213 215 216 218 219 224 227 227 228 228 231 231 223 226 222 222
222 221 226 212 207 200 199 205 206 207 209 209 208 209 208 209 210 212 217 216 220 221 222 228 227 227 230 231 233 228 223 227 224
255 211 257 238 222 220 200 200 203 205 209 208 207 207 208 210 212 211 212 215 218 223 223 228 227 227 229 232 230 229 231 224 230
296 294 256 245 235 233 219 211 202 207 205 208 206 206 207 208 209 210 209 216 220 221 221 224 227 228 230 232 228 230 233 241 232
298 283 273 272 265 239 225 217 210 210 208 206 207 209 208 206 208 209 209 215 219 221 221 221 225 230 231 233 236 230 233 238 240
277 284 283 271 259 250 236 224 218 213 211 206 207 208 210 208 208 210 209 213 218 220 222 222 224 229 232 235 239 239 238 239 241
258 271 276 276 270 258 249 238 221 210 208 208 207 208 208 209 208 209 208 212 218 220 222 225 228 232 234 236 239 242 241 241 242
270 271 275 279 279 272 256 239 223 214 208 207 207 209 210 208 206 209 209 216 216 221 224 227 228 232 236 238 241 242 243 244 242
299 293 286 282 287 285 265 237 223 222 210 210 212 209 209 209 208 210 211 211 213 220 224 218 229 226 233 239 242 243 245 244 243
337 332 310 309 305 310 318 238 222 222 217 209 207 205 206 207 207 208 212 209 213 216 220 220 221 228 226 232 243 246 247 247 246
8 358 360 6 3 4 70 141 213 212 213 197 199 198 203 204 204 205 203 210 211 211 215 212 218 223 226 229 236 246 246 246 246
36 18 11 22 21 33 53 98 139 161 192 193 198 199 201 201 201 201 195 207 207 205 208 210 214 218 225 229 231 234 241 251 247
43 41 41 35 34 37 66 77 115 160 181 191 199 198 199 199 199 201 198 198 201 206 209 212 212 215 221 224 229 233 234 235 251
52 46 42 45 45 47 53 96 99 142 185 181 193 197 196 198 192 197 196 194 196 199 207 211 212 211 213 216 225 232 226 230 232
45 34 32 35 37 39 46 66 96 115 128 171 185 195 196 196 190 194 194 193 194 197 205 207 211 211 213 214 216 224 230 221 232